Location: ???????
(55.7027°N, 37.3832°E)
Time: 06:45:55
(UTC+00:00)

ARGOS Delta rocket - Pass Details

Date: 14 April 2026
Orbit: 631 x 826 km, 96.5° (Epoch: 12 May)

Event Time Altitude Azimuth Distance (km) Brightness Sun altitude
Rises 22:07:36 0° 9° (N) 2,940 8.5 -24.2°
Reaches altitude 10° 22:09:50 10° 4° (N) 2,033 7.3 -24.1°
Maximum altitude 22:14:04 47° 291° (WNW) 856 4.2 -24.0°
Enters shadow 22:14:25 46° 275° (W) 870 4.2 -24.0°
